Weather History for Fort Drum, NY

Change the Weather History Date:

Friday, October 19, 2012

  Actual Average Record
Temperature  
Mean Temperature 55 °F -  
Max Temperature 62 °F 52 °F 76 °F (2007)
Min Temperature 48 °F 35 °F 23 °F (1999)
Degree Days  
Heating Degree Days 10    
Growing Degree Days 5 (Base 50)    
Moisture  
Dew Point 55 °F    
Average Humidity 98    
Maximum Humidity 100    
Minimum Humidity 70    
Precipitation  
Precipitation 0.51 in - - ()
Sea Level Pressure  
Sea Level Pressure 29.72 in    
Wind  
Wind Speed 9 mph (SE)    
Max Wind Speed 20 mph    
Max Gust Speed 25 mph    
Visibility 6 miles    
Events Fog , Rain    
Averages and records for this station are not official NWS values.
T = Trace of Precipitation, MM = Missing Value Source: NWS Daily Summary

Daily Weather History Graph

Daily Weather History Graph

Search for Another Location

Airport:

Trip Planner

Search our weather history database for the weather conditions in past years. The results will help you decide how hot, cold, wet, or windy it might be!

Date:

Astronomy

Oct. 19, 2012 Rise Set
Actual Time 7:23 AM EDT 6:11 PM EDT
Civil Twilight 6:53 AM EDT 6:40 PM EDT
Nautical Twilight 6:20 AM EDT 7:14 PM EDT
Astronomical Twilight 5:46 AM EDT 7:47 PM EDT
Moon 12:11 PM EDT (10/19) 9:40 PM EDT (10/19)
Length of Visible Light 11h 47m
Length of Day
10h 48m
Waxing Crescent, 23% of the Moon is Illuminated
Oct 19
Waxing Crescent
Oct 21
First Quarter
Oct 29
Full
Nov 6
Last Quarter
Nov 13
New

Hourly Weather History & Observations

Time (EDT) Temp. Dew Point Humidity Pressure Visibility Wind Dir Wind Speed Gust Speed Precip Events Conditions
12:55 AM 57.6 °F 47.7 °F 70% 29.83 in 10.0 mi SSE 19.6 mph 25.3 mph N/A   Mostly Cloudy
1:55 AM 57.4 °F 48.2 °F 71% 29.85 in 10.0 mi South 16.1 mph 20.7 mph N/A   Overcast
2:07 AM 57.2 °F 48.2 °F 72% 29.86 in 10.0 mi SSE 13.8 mph - N/A Rain Light Rain
2:33 AM 53.6 °F 51.8 °F 94% 29.88 in 7.0 mi WSW 6.9 mph - N/A Rain Rain
2:35 AM 53.6 °F 51.8 °F 94% 29.89 in 6.0 mi West 6.9 mph - N/A Rain Rain
2:36 AM 53.6 °F 51.8 °F 94% 29.89 in 5.0 mi West 8.1 mph - N/A Rain Rain
2:43 AM 53.6 °F 51.8 °F 94% 29.89 in 4.0 mi WSW 4.6 mph - N/A Rain Heavy Rain
2:54 AM 53.6 °F 53.6 °F 100% 29.90 in 4.0 mi SW 8.1 mph - N/A Rain Heavy Rain
2:55 AM 52.9 °F 52.9 °F 100% 29.90 in 4.0 mi SW 6.9 mph - 0.10 in Rain Rain
2:56 AM 53.6 °F 53.6 °F 100% 29.89 in 4.0 mi SW 5.8 mph - N/A Rain Rain
2:59 AM 53.6 °F 53.6 °F 100% 29.90 in 5.0 mi SW 5.8 mph - N/A Rain Rain
3:05 AM 53.6 °F 53.6 °F 100% 29.90 in 8.0 mi WSW 9.2 mph - N/A Rain Light Rain
3:24 AM 51.8 °F 51.8 °F 100% 29.90 in 10.0 mi West 10.4 mph 18.4 mph N/A Rain Light Rain
3:25 AM 51.8 °F 51.8 °F 100% 29.90 in 10.0 mi West 10.4 mph 18.4 mph N/A Rain Light Rain
3:30 AM 50.0 °F 50.0 °F 100% 29.91 in 10.0 mi West 5.8 mph - N/A   Light Drizzle
3:38 AM 50.0 °F 50.0 °F 100% 29.90 in 10.0 mi West 4.6 mph - N/A Rain Light Rain
3:55 AM 49.6 °F 49.6 °F 100% 29.91 in 10.0 mi West 5.8 mph - 0.03 in Rain Light Rain
3:56 AM 50.0 °F 50.0 °F 100% 29.91 in 10.0 mi WSW 4.6 mph - N/A   Light Drizzle
3:59 AM 50.0 °F 50.0 °F 100% 29.91 in 10.0 mi WSW 4.6 mph - N/A   Overcast
4:24 AM 50.0 °F 50.0 °F 100% 29.89 in 10.0 mi SSW 3.5 mph - N/A Rain Light Rain
4:51 AM 50.0 °F 50.0 °F 100% 29.86 in 10.0 mi East 4.6 mph - N/A   Mostly Cloudy
4:55 AM 49.3 °F 49.3 °F 100% 29.87 in 10.0 mi Calm Calm - 0.01 in   Mostly Cloudy
5:55 AM 48.9 °F 48.9 °F 100% 29.83 in 10.0 mi ESE 10.4 mph - N/A   Clear
6:55 AM 49.1 °F 49.1 °F 100% 29.83 in 10.0 mi SE 10.4 mph - N/A   Clear
7:55 AM 50.2 °F 50.2 °F 100% 29.81 in 10.0 mi SSE 12.7 mph - N/A   Scattered Clouds
8:55 AM 52.3 °F 52.3 °F 100% 29.81 in 10.0 mi SSE 10.4 mph - N/A   Mostly Cloudy
9:39 AM 53.6 °F 53.6 °F 100% 29.79 in 10.0 mi South 10.4 mph - N/A Rain Light Rain
9:52 AM 53.6 °F 53.6 °F 100% 29.82 in 6.0 mi South 8.1 mph - N/A Rain Light Rain
9:55 AM 53.8 °F 53.8 °F 100% 29.82 in 4.0 mi South 8.1 mph - 0.03 in Rain Heavy Rain
10:55 AM 55.2 °F 55.2 °F 100% 29.82 in 6.0 mi SSE 5.8 mph - 0.19 in Rain Light Rain
11:52 AM 56.7 °F 56.7 °F 100% 29.79 in 10.0 mi ESE 6.9 mph - 0.09 in Rain Light Rain
11:55 AM 56.7 °F 56.7 °F 100% 29.79 in 10.0 mi ESE 6.9 mph - 0.09 in Rain Light Rain
12:55 PM 55.9 °F 55.9 °F 100% 29.73 in 10.0 mi ESE 9.2 mph - 0.05 in Rain Light Rain
1:55 PM 57.7 °F 57.7 °F 100% 29.72 in 7.0 mi ESE 5.8 mph - 0.01 in   Clear
2:55 PM 59.9 °F 58.3 °F 94% 29.72 in 10.0 mi SSW 4.6 mph - N/A   Partly Cloudy
3:26 PM 60.8 °F 57.2 °F 88% 29.71 in 10.0 mi South 3.5 mph - N/A   Mostly Cloudy
3:46 PM 62.6 °F 59.0 °F 88% 29.70 in 10.0 mi East 8.1 mph - N/A   Scattered Clouds
3:55 PM 62.4 °F 58.3 °F 86% 29.69 in 10.0 mi East 5.8 mph - N/A   Scattered Clouds
4:10 PM 60.8 °F 59.0 °F 94% 29.68 in 10.0 mi NE 4.6 mph - N/A   Mostly Cloudy
4:30 PM 60.8 °F 59.0 °F 94% 29.69 in 10.0 mi East 8.1 mph - N/A   Overcast
4:42 PM 60.8 °F 59.0 °F 94% 29.68 in 10.0 mi NE 4.6 mph - N/A   Overcast
4:55 PM 60.8 °F 59.4 °F 95% 29.68 in 10.0 mi Variable 3.5 mph - N/A   Overcast
5:00 PM 60.8 °F 59.0 °F 94% 29.68 in 10.0 mi ENE 4.6 mph - N/A   Overcast
5:43 PM 60.8 °F 59.0 °F 94% 29.67 in 10.0 mi ESE 4.6 mph - N/A   Overcast
5:55 PM 59.9 °F 59.2 °F 97% 29.66 in 10.0 mi East 4.6 mph - N/A   Overcast
6:05 PM 59.0 °F 59.0 °F 100% 29.66 in 10.0 mi East 3.5 mph - N/A   Overcast
6:06 PM 59.0 °F 59.0 °F 100% 29.67 in 10.0 mi ESE 3.5 mph - N/A   Overcast
6:55 PM 56.3 °F 56.3 °F 100% 29.66 in 10.0 mi East 4.6 mph - N/A   Scattered Clouds
7:35 PM 53.6 °F 53.6 °F 100% 29.67 in 2.5 mi NNE 4.6 mph - N/A   Clear
7:36 PM 53.6 °F 53.6 °F 100% 29.67 in 2.0 mi NNE 4.6 mph - N/A   Clear
7:37 PM 53.6 °F 53.6 °F 100% 29.66 in 1.8 mi NNE 4.6 mph - N/A   Clear
7:39 PM 53.6 °F 53.6 °F 100% 29.66 in 1.2 mi NE 4.6 mph - N/A   Clear
7:40 PM 53.6 °F 53.6 °F 100% 29.66 in 1.2 mi NE 4.6 mph - N/A   Clear
7:43 PM 53.6 °F 53.6 °F 100% 29.66 in 1.2 mi NE 5.8 mph - N/A   Partly Cloudy
7:44 PM 53.6 °F 53.6 °F 100% 29.66 in 1.5 mi NE 5.8 mph - N/A   Partly Cloudy
7:47 PM 53.6 °F 53.6 °F 100% 29.66 in 2.0 mi ENE 5.8 mph - N/A   Partly Cloudy
7:48 PM 53.6 °F 53.6 °F 100% 29.66 in 2.5 mi ENE 4.6 mph - N/A   Partly Cloudy
7:49 PM 53.6 °F 53.6 °F 100% 29.66 in 4.0 mi ENE 5.8 mph - N/A   Partly Cloudy
7:55 PM 53.6 °F 53.6 °F 100% 29.66 in 10.0 mi East 5.8 mph - N/A   Partly Cloudy
8:17 PM 53.6 °F 53.6 °F 100% 29.66 in 10.0 mi SE 6.9 mph - N/A   Partly Cloudy
8:26 PM 53.6 °F 53.6 °F 100% 29.65 in 10.0 mi SE 8.1 mph - N/A   Mostly Cloudy
8:28 PM 53.6 °F 53.6 °F 100% 29.65 in 10.0 mi SE 6.9 mph - N/A   Mostly Cloudy
8:37 PM 53.6 °F 53.6 °F 100% 29.65 in 2.5 mi SE 8.1 mph - N/A   Mostly Cloudy
8:38 PM 55.4 °F 55.4 °F 100% 29.65 in 2.0 mi SSE 8.1 mph - N/A   Mostly Cloudy
8:39 PM 55.4 °F 55.4 °F 100% 29.65 in 1.5 mi SSE 8.1 mph - N/A   Mostly Cloudy
8:40 PM 55.4 °F 55.4 °F 100% 29.65 in 1.2 mi SSE 9.2 mph - N/A   Mostly Cloudy
8:41 PM 55.4 °F 55.4 °F 100% 29.65 in 1.0 mi SSE 9.2 mph - N/A   Overcast
8:42 PM 55.4 °F 55.4 °F 100% 29.65 in 0.8 mi SSE 8.1 mph - N/A   Overcast
8:46 PM 55.4 °F 55.4 °F 100% 29.65 in 0.5 mi SSE 8.1 mph - N/A Fog Fog
8:47 PM 55.4 °F 55.4 °F 100% 29.65 in 0.5 mi SSE 8.1 mph - N/A Fog Fog
8:51 PM 55.4 °F 55.4 °F 100% 29.65 in 0.8 mi SE 8.1 mph - N/A   Mostly Cloudy
8:55 PM 54.9 °F 54.9 °F 100% 29.65 in 0.8 mi SE 9.2 mph - N/A   Mist
8:56 PM 55.4 °F 55.4 °F 100% 29.65 in 0.8 mi SSE 8.1 mph - N/A   Mist
8:58 PM 55.4 °F 55.4 °F 100% 29.65 in 0.8 mi SE 9.2 mph - N/A   Mist
9:01 PM 55.4 °F 55.4 °F 100% 29.65 in 1.0 mi SE 9.2 mph - N/A   Mist
9:04 PM 55.4 °F 55.4 °F 100% 29.65 in 1.2 mi SE 8.1 mph - N/A   Mostly Cloudy
9:06 PM 55.4 °F 55.4 °F 100% 29.65 in 1.8 mi SE 8.1 mph - N/A   Mostly Cloudy
9:07 PM 55.4 °F 55.4 °F 100% 29.65 in 2.0 mi SE 8.1 mph - N/A   Mostly Cloudy
9:09 PM 55.4 °F 55.4 °F 100% 29.65 in 2.5 mi SE 8.1 mph - N/A   Mostly Cloudy
9:10 PM 55.4 °F 55.4 °F 100% 29.65 in 2.5 mi SE 8.1 mph - N/A   Mostly Cloudy
9:11 PM 55.4 °F 55.4 °F 100% 29.65 in 3.0 mi SE 8.1 mph - N/A   Mostly Cloudy
9:16 PM 55.4 °F 55.4 °F 100% 29.65 in 5.0 mi SE 9.2 mph - N/A   Scattered Clouds
9:21 PM 55.4 °F 55.4 °F 100% 29.65 in 6.0 mi SE 8.1 mph - N/A   Scattered Clouds
9:55 PM 55.4 °F 55.4 °F 100% 29.64 in 10.0 mi SSE 6.9 mph - N/A   Mostly Cloudy
10:04 PM 55.4 °F 55.4 °F 100% 29.64 in 4.0 mi SSE 6.9 mph - N/A   Overcast
10:11 PM 55.4 °F 55.4 °F 100% 29.64 in 7.0 mi SSE 9.2 mph - N/A   Overcast
10:36 PM 57.2 °F 57.2 °F 100% 29.63 in 10.0 mi SE 10.4 mph - N/A   Overcast
10:48 PM 57.2 °F 57.2 °F 100% 29.63 in 7.0 mi SSE 12.7 mph - N/A   Overcast
10:53 PM 57.2 °F 57.2 °F 100% 29.63 in 5.0 mi SSE 11.5 mph - N/A   Overcast
10:55 PM 57.0 °F 57.0 °F 100% 29.62 in 5.0 mi SSE 10.4 mph - N/A   Overcast
11:02 PM 57.2 °F 57.2 °F 100% 29.62 in 4.0 mi SSE 11.5 mph - N/A   Overcast
11:08 PM 57.2 °F 57.2 °F 100% 29.62 in 4.0 mi SE 11.5 mph - N/A   Overcast
11:25 PM 57.2 °F 57.2 °F 100% 29.61 in 3.0 mi SE 9.2 mph - N/A   Overcast
11:28 PM 57.2 °F 57.2 °F 100% 29.61 in 2.5 mi SSE 10.4 mph - N/A   Overcast
11:33 PM 57.2 °F 57.2 °F 100% 29.61 in 2.0 mi SSE 10.4 mph - N/A   Overcast
11:42 PM 57.2 °F 57.2 °F 100% 29.60 in 2.5 mi SE 9.2 mph - N/A   Overcast
11:45 PM 57.2 °F 57.2 °F 100% 29.60 in 3.0 mi SE 9.2 mph - N/A   Overcast
11:49 PM 57.2 °F 57.2 °F 100% 29.60 in 4.0 mi SE 10.4 mph - N/A   Overcast
11:54 PM 57.2 °F 57.2 °F 100% 29.60 in 6.0 mi SSE 9.2 mph - N/A   Overcast
11:55 PM 57.2 °F 57.2 °F 100% 29.60 in 6.0 mi SSE 9.2 mph - N/A   Overcast